View from above orbital plane
|
View from above satellite
|
Ground track
|
The orbit data is extracted from the following two-line orbital elements,
1 5732U 71120B 21059.49922246 .00000071 00000-0 35185-4 0 9997
2 5732 81.2484 256.7871 0051179 200.5117 159.3998 14.05999581528955
Epoch (UTC): | 28 February 2021 11:58:52 |
Eccentricity: | 0.0051179 |
inclination: | 81.2484° |
perigee height: | 836 km |
apogee height: | 910 km |
right ascension of ascending node: | 256.7871° |
argument of perigee: | 200.5117° |
revolutions per day: | 14.05999581 |
mean anomaly at epoch: | 159.3998° |
orbit number at epoch: | 52895 |
The dashed part of the orbit path shows where the satellite is in the earth's shadow,
|
|